Temp
10 10 9 9 9 9 9 9 9 9 9 9 9 9 9 9 9 9 9 9 9 9 9 9 9 9 9 9 9 9 9 9 10 9 9 9 9 9 9 9 9 9
10 10 10 10 10 10 9 9 9 9 9 9 9 9 9 9 9 9 9 9 9 9 9 9 9 9 9 9 9 9 9 9 9 9 9 9 9 9 9 9 9 9
10 10 10 10 10 10 10 9 9 9 9 9 9 9 9 9 9 9 9 9 9 9 9 9 9 9 9 9 9 9 9 9 9 9 9 9 9 9 9 9 9 9
10 10 10 9 9 9 9 9 9 9 9 9 9 9 9 9 9 9 9 9 9 9 9 9 9 9 9 9 9 9 10 10 10 9 9 9 9 9 9 9 9 9
9 9 9 9 9 9 9 9 9 9 9 9 9 9 9 9 9 9 9 9 9 9 9 9 9 9 9 9 9 10 10 10 10 9 9 9 9 9 9 9 9 9
10 10 9 9 9 9 9 9 9 9 9 9 9 9 9 9 9 9 9 9 9 9 9 9 9 9 9 9 10 10 10 10 10 10 9 10 10 10 10 10 10 10
10 10 9 9 9 9 9 9 9 9 9 9 9 9 9 9 9 9 9 9 9 9 9 9 9 9 9 10 10 10 10 10 10 10 10 10 9 9 9 10 10 10
10 10 9 9 9 9 9 9 9 9 9 10 10 9 9 9 9 9 9 10 9 9 9 10 10 10 10 10 9 9 9 9 10 10 10 10 9 9 10 10 10 10
10 9 9 10 10 10 9 9 9 9 9 10 9 9 9 9 9 9 9 10 10 9 9 9 9 9 10 9 9 9 9 9 10 10 10 10 10 10 10 10 10 10
10 9 10 10 10 10 10 10 9 9 9 9 9 9 9 9 9 9 9 9 9 9 9 9 9 9 9 9 9 9 9 10 10 10 10 10 10 10 10 10 9 9
10 10 10 10 10 10 10 9 9 9 9 9 9 9 9 9 9 9 9 9 9 9 9 9 9 9 9 9 9 9 9 9 10 10 10 10 10 10 10 10 9 9
10 10 10 10 10 10 9 9 9 9 9 9 9 9 9 9 9 9 9 9 9 9 9 9 9 9 9 9 9 9 9 9 9 9 10 10 10 10 10 10 10 10
10 10 10 10 10 10 9 9 9 9 9 9 9 9 9 9 9 9 9 9 9 9 9 9 9 9 9 9 9 9 9 9 9 9 9 9 9 9 10 10 9 9
10 10 10 10 10 10 9 9 9 9 9 9 9 10 9 9 9 9 9 9 9 9 9 9 9 9 9 9 9 9 9 9 9 9 9 9 9 9 9 9 9 9
10 10 10 10 10 10 10 9 9 9 9 9 9 10 9 9 9 9 9 9 9 9 9 9 9 9 9 9 9 9 9 9 9 9 9 9 9 9 9 9 9 9
9 10 10 10 10 10 10 10 9 9 9 9 9 9 9 9 9 9 9 9 9 9 9 9 9 9 9 9 9 9 9 9 9 9 9 9 9 9 9 9 9 9
9 9 9 9 10 10 9 9 9 9 9 9 9 9 9 9 9 9 9 9 9 9 9 9 9 9 9 9 9 9 9 9 9 9 9 9 9 9 9 9 9 9
9 9 9 9 9 9 9 9 9 9 9 9 9 9 9 9 9 9 9 9 9 9 9 9 9 9 9 9 9 9 9 9 9 9 9 9 9 9 9 9 9 9
9 9 9 9 9 9 9 9 9 9 9 9 9 9 9 9 9 9 9 9 9 9 9 9 9 9 9 9 9 9 9 9 9 9 9 9 9 9 9 9 9 9
9 9 9 9 9 9 9 9 9 9 9 9 9 9 9 9 9 9 9 9 9 9 9 9 9 9 9 9 9 9 9 9 9 9 9 9 9 9 9 9 9 9
9 9 9 8 8 8 9 9 9 9 9 9 9 9 9 9 9 8 8 8 8 8 9 9 9 9 9 9 9 9 9 9 8 9 9 9 9 9 9 9 9 9
9 8 8 8 8 8 8 8 8 9 8 8 8 8 8 8 8 8 8 8 8 8 8 8 8 9 9 9 9 9 9 9 9 9 9 9 9 9 9 9 9 9
8 8 8 8 8 8 8 8 8 8 8 8 8 8 8 8 8 8 8 8 8 8 8 8 8 8 8 9 9 9 9 9 9 9 9 9 9 9 9 9 9 8
8 8 8 8 8 8 8 8 8 8 8 8 9 9 9 8 8 8 8 8 8 8 8 8 8 8 8 8 8 9 9 9 9 9 9 9 9 9 9 9 9 9
8 8 8 8 8 8 8 8 8 8 9 9 9 9 9 9 9 9 9 9 8 8 8 8 8 8 8 8 8 8 8 9 9 9 9 9 9 9 9 9 9 9
7 8 8 8 8 8 8 8 9 9 9 9 9 9 9 8 9 9 9 8 8 8 8 8 8 8 8 8 8 8 9 9 9 9 9 9 9 9 9 9 9 9
Height
3230 3231 3232 3233 3234 3234 3235 3236 3237 3237 3238 3239 3240 3241 3241 3242 3242 3243 3243 3244 3244 3245 3245 3246 3246 3246 3247 3247 3247 3247 3248 3248 3248 3249 3249 3249 3250 3250 3250 3250 3250 3250
3229 3230 3231 3232 3233 3234 3235 3235 3236 3236 3237 3238 3239 3240 3240 3241 3241 3242 3242 3243 3243 3244 3244 3244 3245 3245 3246 3246 3247 3247 3247 3247 3248 3248 3248 3248 3248 3249 3249 3249 3249 3249
3228 3229 3230 3231 3232 3233 3234 3234 3235 3236 3236 3237 3238 3239 3239 3240 3240 3241 3241 3242 3242 3243 3243 3243 3244 3244 3244 3245 3245 3246 3246 3247 3247 3247 3247 3247 3247 3247 3248 3248 3248 3248
3228 3228 3229 3230 3231 3232 3232 3233 3234 3235 3236 3237 3237 3238 3238 3239 3240 3240 3240 3241 3241 3242 3242 3242 3243 3243 3243 3244 3244 3245 3245 3246 3246 3246 3246 3246 3247 3247 3247 3247 3247 3247
3227 3228 3228 3229 3230 3230 3231 3232 3233 3234 3235 3236 3236 3237 3238 3238 3239 3239 3240 3240 3241 3241 3241 3242 3242 3242 3242 3243 3243 3243 3244 3244 3245 3245 3245 3245 3246 3246 3246 3246 3246 3246
3226 3227 3228 3228 3229 3229 3230 3231 3232 3233 3234 3235 3235 3236 3237 3237 3238 3238 3239 3239 3240 3240 3241 3241 3241 3241 3242 3242 3242 3242 3243 3243 3243 3244 3244 3244 3244 3244 3244 3245 3245 3245
3224 3226 3227 3227 3228 3229 3229 3230 3231 3232 3233 3234 3234 3235 3236 3237 3237 3238 3238 3239 3239 3240 3240 3240 3241 3241 3241 3241 3242 3242 3242 3242 3242 3243 3243 3243 3243 3243 3243 3243 3244 3244
3223 3224 3225 3226 3227 3228 3229 3230 3230 3231 3232 3233 3234 3234 3235 3236 3237 3237 3238 3238 3238 3239 3239 3239 3240 3240 3240 3241 3241 3241 3241 3241 3242 3242 3242 3242 3242 3242 3242 3242 3243 3243
3221 3222 3224 3225 3226 3227 3228 3229 3230 3231 3231 3232 3233 3233 3234 3235 3236 3236 3237 3237 3238 3238 3238 3239 3239 3239 3240 3240 3240 3240 3240 3241 3241 3241 3241 3241 3241 3241 3241 3242 3242 3242
3220 3221 3222 3223 3225 3226 3227 3228 3229 3230 3231 3231 3232 3232 3233 3234 3234 3235 3236 3236 3237 3237 3237 3238 3238 3238 3238 3239 3239 3239 3239 3239 3240 3240 3240 3240 3240 3240 3240 3241 3241 3240
3219 3220 3221 3222 3224 3225 3225 3226 3227 3228 3229 3230 3231 3231 3232 3232 3233 3234 3235 3235 3236 3236 3236 3237 3237 3237 3237 3237 3238 3238 3238 3238 3238 3238 3239 3239 3239 3239 3239 3239 3239 3239
3217 3218 3219 3221 3222 3223 3224 3225 3225 3226 3227 3228 3229 3230 3231 3232 3232 3233 3234 3234 3235 3235 3235 3236 3236 3236 3236 3236 3236 3237 3237 3237 3237 3237 3237 3238 3238 3238 3238 3238 3238 3238
3215 3216 3217 3219 3220 3221 3222 3223 3223 3224 3225 3227 3228 3229 3230 3230 3231 3232 3232 3233 3233 3234 3234 3234 3234 3235 3235 3235 3235 3235 3235 3235 3235 3235 3236 3236 3236 3236 3236 3236 3236 3236
3213 3214 3215 3216 3218 3219 3220 3221 3221 3222 3223 3224 3226 3227 3228 3229 3230 3230 3231 3232 3232 3232 3233 3233 3233 3233 3233 3233 3233 3233 3234 3234 3234 3234 3234 3234 3234 3234 3234 3234 3234 3234
3211 3212 3213 3214 3215 3216 3218 3218 3219 3220 3221 3222 3223 3225 3226 3227 3228 3228 3229 3230 3231 3231 3231 3231 3232 3232 3232 3232 3232 3232 3232 3232 3232 3232 3232 3232 3232 3232 3232 3232 3232 3232
3209 3210 3211 3212 3213 3214 3216 3217 3218 3218 3219 3220 3221 3223 3224 3225 3226 3226 3227 3228 3228 3229 3229 3230 3230 3230 3230 3230 3230 3230 3230 3230 3230 3230 3230 3230 3230 3230 3231 3230 3230 3230
3206 3207 3209 3210 3211 3212 3213 3215 3216 3216 3217 3218 3219 3220 3222 3223 3223 3224 3225 3225 3226 3226 3227 3227 3228 3228 3228 3228 3228 3228 3227 3227 3227 3228 3228 3228 3228 3228 3228 3228 3228 3228
3203 3204 3206 3207 3208 3210 3211 3212 3213 3214 3215 3217 3218 3219 3219 3220 3221 3222 3222 3223 3223 3224 3225 3225 3225 3225 3225 3225 3225 3225 3225 3225 3225 3225 3225 3225 3226 3226 3226 3226 3225 3225
3200 3201 3203 3204 3205 3207 3208 3209 3210 3211 3213 3214 3214 3215 3215 3215 3217 3218 3219 3220 3221 3222 3222 3223 3223 3223 3223 3223 3223 3223 3223 3223 3223 3223 3223 3223 3223 3223 3223 3223 3223 3223
3196 3198 3199 3201 3202 3204 3205 3206 3207 3208 3208 3209 3210 3211 3211 3213 3215 3216 3217 3218 3219 3219 3220 3220 3220 3220 3220 3220 3220 3220 3220 3220 3220 3220 3220 3220 3220 3220 3220 3220 3220 3220
3193 3195 3196 3198 3199 3200 3202 3203 3203 3202 3202 3205 3208 3209 3210 3212 3213 3213 3214 3214 3214 3215 3216 3216 3217 3217 3217 3217 3217 3218 3217 3217 3217 3217 3217 3217 3217 3217 3217 3217 3216 3216
3191 3192 3192 3194 3195 3197 3198 3198 3198 3199 3201 3206 3209 3207 3207 3209 3210 3210 3211 3212 3213 3213 3213 3213 3213 3213 3213 3214 3214 3214 3214 3214 3214 3213 3214 3214 3214 3214 3214 3213 3212 3212
3189 3189 3190 3192 3193 3194 3194 3194 3195 3198 3201 3204 3206 3205 3205 3208 3209 3208 3208 3210 3210 3210 3210 3209 3209 3209 3209 3209 3209 3210 3210 3209 3209 3209 3209 3210 3210 3210 3210 3209 3208 3208
3187 3187 3189 3191 3192 3192 3192 3192 3194 3197 3199 3200 3200 3201 3203 3206 3206 3205 3205 3205 3206 3206 3205 3205 3204 3205 3205 3205 3205 3205 3205 3205 3204 3204 3204 3205 3205 3205 3205 3204 3204 3203
3185 3186 3187 3189 3191 3191 3191 3192 3194 3195 3196 3196 3196 3198 3200 3202 3203 3202 3202 3202 3202 3201 3201 3200 3200 3200 3200 3201 3201 3201 3200 3200 3199 3199 3200 3200 3200 3200 3199 3198 3198 3198
3184 3185 3186 3187 3189 3190 3190 3190 3191 3192 3193 3193 3193 3196 3197 3198 3198 3198 3198 3198 3198 3197 3197 3197 3196 3196 3196 3196 3196 3196 3196 3196 3195 3195 3195 3196 3195 3194 3194 3193 3193 3192
Wind_Speed
13 13 13 12 12 12 11 10 10 10 9 9 9 9 8 8 8 8 8 9 9 9 9 10 10 10 10 10 10 10 10 10 10 9 10 9 8 9 9 9 9 9
14 14 14 13 13 12 12 11 11 10 10 10 10 9 9 9 8 8 9 9 9 9 9 10 10 10 10 11 11 11 11 11 11 10 10 10 10 10 10 10 10 10
15 15 14 14 13 13 13 12 11 11 11 11 11 10 10 10 9 9 9 9 9 9 9 9 10 10 10 11 11 11 11 11 11 11 11 11 11 11 11 11 11 11
15 15 15 14 14 14 14 13 12 12 11 11 11 11 11 10 10 10 10 9 9 9 9 9 9 9 10 10 10 10 11 11 11 11 11 12 12 12 12 11 11 11
15 15 15 15 15 15 15 14 14 13 13 12 12 11 11 11 11 11 11 10 10 10 10 10 9 10 10 10 10 10 10 10 10 10 11 12 12 12 12 12 12 11
16 15 15 15 15 16 16 15 15 15 14 13 12 11 11 11 10 11 11 11 11 11 10 10 10 10 10 10 10 10 10 9 10 10 11 11 12 12 12 12 12 12
16 16 15 15 16 16 16 15 15 15 15 14 13 12 11 11 10 11 11 11 11 11 11 10 10 10 10 10 10 10 9 9 10 10 10 11 11 11 12 12 11 12
18 17 17 16 16 16 15 15 15 15 15 14 13 12 12 11 11 11 11 11 10 11 11 10 10 10 10 10 10 10 9 10 10 10 10 11 11 11 11 10 10 11
19 19 18 17 17 16 15 15 15 15 15 14 13 13 13 12 12 11 11 11 10 10 10 10 10 10 10 10 10 10 10 10 10 10 10 11 10 10 10 9 9 9
21 20 19 18 17 16 16 16 16 16 15 14 14 14 13 13 13 12 12 11 10 10 10 10 10 10 10 10 10 10 10 10 10 10 10 11 10 10 9 9 9 9
20 20 20 19 18 17 17 17 17 17 16 15 15 15 14 14 14 13 12 11 11 11 11 11 11 11 10 10 10 11 11 11 11 11 11 11 11 11 10 10 10 10
20 20 19 19 18 18 18 18 18 18 18 17 16 16 15 14 14 14 13 13 12 13 13 12 12 12 11 11 11 11 11 12 12 12 13 13 13 13 12 12 12 12
20 20 20 19 19 19 20 20 20 20 19 18 18 17 16 15 15 15 15 14 14 14 14 14 14 14 13 13 12 12 12 12 13 13 14 14 14 14 14 14 13 13
21 21 21 21 20 21 21 21 21 21 20 20 19 19 18 17 17 17 17 16 16 15 16 16 16 16 15 14 14 13 14 14 14 15 15 15 15 15 15 15 15 15
23 22 22 22 22 22 22 22 22 22 21 21 21 21 20 19 19 19 19 19 18 18 18 19 19 18 17 17 16 16 16 16 16 16 16 16 16 16 16 17 17 16
24 24 23 23 23 22 23 23 23 23 22 22 22 21 21 21 21 21 20 20 20 20 20 21 21 21 20 20 20 19 19 19 19 19 18 18 18 18 18 18 18 18
25 25 24 24 23 23 23 23 23 23 23 23 22 21 21 21 21 21 21 21 21 21 21 21 22 22 22 22 22 22 21 21 21 21 21 21 20 20 20 20 20 19
26 26 25 25 24 24 24 25 25 24 23 23 22 21 21 21 21 22 22 21 22 21 21 22 22 22 22 22 22 23 23 23 22 22 22 22 22 21 22 22 22 22
26 26 26 25 25 26 26 26 26 25 25 24 24 24 24 24 23 23 23 22 22 22 23 23 23 22 22 21 22 22 22 22 22 23 23 22 22 22 22 23 24 24
26 27 27 26 26 26 26 27 27 27 27 27 26 26 25 24 23 23 23 23 23 23 24 24 24 24 23 23 22 22 23 23 23 23 24 23 23 23 24 24 25 26
25 27 28 26 26 26 26 27 29 30 30 29 27 27 25 23 23 23 24 25 25 25 25 25 25 25 25 25 25 24 24 25 25 25 25 25 25 26 27 28 28 29
25 26 29 27 26 26 26 28 30 30 29 25 24 26 25 23 23 24 24 25 26 26 27 28 28 28 28 28 28 28 27 27 27 28 28 28 28 28 29 30 31 32
25 25 27 27 25 25 27 29 30 27 25 23 23 25 24 22 23 25 25 25 26 28 31 32 31 31 31 30 31 30 31 31 31 30 31 31 31 32 32 33 33 34
26 23 23 24 25 25 26 28 26 23 22 23 24 25 23 21 23 25 25 24 26 29 32 35 36 36 35 33 33 33 33 34 33 33 33 34 34 35 35 36 36 36
24 24 23 23 25 27 27 27 25 23 23 25 25 25 23 22 22 23 23 24 26 27 28 31 35 37 37 36 35 35 35 35 35 35 34 33 33 34 35 36 37 37
22 23 23 23 24 26 27 28 27 26 26 27 27 27 27 27 27 27 27 28 28 27 26 26 28 32 34 35 35 36 36 36 35 35 33 32 32 33 34 35 36 37
Wind_Direction
198 198 200 201 201 203 202 202 201 199 199 202 206 210 212 214 216 218 221 221 220 220 220 222 228 231 230 232 233 233 235 238 239 240 244 249 252 255 254 251 249 253
199 200 202 204 207 209 207 205 203 200 201 206 208 211 217 222 221 221 225 225 223 223 222 222 225 229 232 234 237 239 240 241 242 241 244 248 250 252 253 251 248 250
202 203 203 205 210 211 209 209 208 207 207 209 211 212 216 222 221 221 224 225 225 225 224 224 223 224 229 233 237 241 242 242 243 244 247 249 249 248 249 250 250 249
207 207 205 206 211 212 211 210 210 211 213 215 217 218 219 222 223 223 223 223 224 224 223 224 224 225 228 232 236 239 241 243 245 247 250 253 252 251 253 255 254 251
211 212 211 210 212 213 213 211 210 211 212 215 219 220 222 223 223 223 223 222 222 223 224 223 225 227 229 231 234 237 239 242 245 246 249 252 254 255 257 259 259 256
213 215 216 216 216 215 214 212 211 211 212 214 215 217 221 223 222 222 223 224 224 225 227 227 228 229 230 231 233 236 238 242 245 245 247 252 256 258 260 261 261 260
215 217 219 221 221 218 216 213 212 212 213 214 213 214 218 220 220 221 222 225 225 227 230 232 233 234 233 233 234 238 240 242 245 246 248 253 257 260 261 261 262 261
215 217 219 221 222 220 218 215 212 213 215 216 214 215 219 220 221 224 226 227 226 226 230 234 237 238 238 236 237 240 243 244 246 249 251 255 257 261 264 267 268 266
218 218 218 220 220 220 219 216 214 215 217 217 215 216 219 220 222 225 229 231 231 230 232 235 238 240 240 240 240 242 244 245 247 250 253 257 259 263 268 272 273 270
222 221 221 220 219 218 217 218 219 220 220 219 219 220 220 220 222 224 227 232 236 237 236 235 236 239 240 241 244 246 247 248 250 253 256 259 262 265 269 273 274 273
224 224 224 223 221 219 217 219 221 223 223 223 224 225 223 222 224 225 227 229 233 237 239 239 240 242 243 244 247 250 251 253 255 257 258 260 262 264 265 267 266 268
224 225 226 225 224 222 220 220 221 223 224 225 227 229 229 229 231 232 232 231 232 235 238 240 243 245 247 248 249 251 253 256 259 261 261 262 263 264 264 265 265 266
225 225 225 225 225 224 223 224 224 223 225 226 229 233 234 234 235 237 238 237 236 239 242 243 244 245 247 249 252 255 258 260 262 263 265 265 265 267 267 268 268 269
225 225 225 224 223 224 224 225 225 226 227 228 231 235 236 238 239 240 242 242 241 243 245 247 247 248 250 251 253 258 261 264 266 266 267 268 268 269 270 270 271 271
228 226 226 226 226 227 226 226 226 227 228 229 230 233 235 238 241 242 243 244 245 246 248 249 250 251 254 255 255 258 261 263 264 265 266 268 269 269 271 273 273 271
232 230 229 228 228 229 230 230 230 230 230 231 231 233 234 237 240 242 244 246 247 247 249 250 251 252 254 255 255 256 258 258 259 260 263 266 267 269 271 272 272 271
232 232 232 231 231 231 232 233 235 235 235 235 235 235 236 237 240 242 244 246 247 248 249 250 252 253 252 252 252 253 254 255 255 256 258 261 265 268 269 270 270 269
231 232 233 233 233 234 234 234 236 238 240 241 242 243 243 242 244 245 245 246 248 249 251 251 252 253 252 251 251 252 253 254 255 256 258 260 264 266 268 268 268 268
230 231 232 233 234 236 237 237 238 239 241 242 242 242 243 242 243 244 245 247 249 251 252 252 251 251 249 249 250 251 252 254 257 259 261 263 266 267 268 268 268 269
232 231 230 231 233 236 238 239 240 240 239 238 240 242 244 246 248 250 250 251 251 250 251 252 252 251 249 248 248 250 253 255 257 260 263 266 268 269 270 271 270 269
232 230 228 229 231 233 236 237 239 240 238 236 238 242 244 247 251 253 253 253 253 252 252 252 252 253 252 252 251 252 254 256 257 260 262 264 267 270 271 272 271 269
232 229 224 224 226 229 233 237 238 241 244 245 248 250 248 246 250 253 255 257 259 261 260 258 255 254 254 255 256 256 257 259 260 262 264 265 266 268 269 269 268 268
232 231 223 221 225 229 234 237 239 243 251 256 259 260 259 257 260 264 264 263 262 262 263 262 261 259 258 258 258 259 261 264 266 268 270 271 272 272 272 270 267 266
228 234 232 231 235 240 243 244 245 249 255 258 260 263 264 262 264 268 270 271 271 268 265 262 260 259 260 261 261 263 265 267 270 272 273 275 276 277 275 273 269 267
225 233 239 240 242 248 252 254 255 256 257 257 260 263 264 263 263 266 269 271 272 271 269 266 260 257 259 261 263 265 267 269 270 272 273 275 276 275 274 273 272 270
224 231 237 241 245 248 250 252 255 256 256 256 256 259 263 263 264 267 267 264 263 266 270 269 264 259 258 261 263 265 267 269 270 271 273 274 275 275 275 275 275 274